User: anonymous   Login
Location: Stoke Bliss
(52.2667°N, 2.5167°W)
Time: 15:25:26
(UTC+00:00)
Language:

Cosmos 1378 - Orbit

View from above orbital plane
View from above orbital plane
View from above satellite
View from above satellite

Ground track
Ground track

The orbit data is extracted from the following two-line orbital elements,

1 13271U 82059A   21125.34009220  .00001043  00000-0  42170-4 0  9995
2 13271  82.4669 229.6995 0007310  25.4152 334.7442 15.23599543125509
Epoch (UTC): 05 May 2021 08:09:43
Eccentricity: 0.0007310
inclination: 82.4669°
perigee height: 490 km
apogee height: 500 km
right ascension of ascending node: 229.6995°
argument of perigee: 25.4152°
revolutions per day: 15.23599543
mean anomaly at epoch: 334.7442°
orbit number at epoch: 12550

The dashed part of the orbit path shows where the satellite is in the earth's shadow,  

DLR